Location: Unspecified
(49.2170°N, 0.0000°E)
Time: 14:39:31
(UTC+00:00)

A-11 Canister half - Pass Details

Date: 17 June 2019
Orbit: 1526 x 1683 km, 47.3° (Epoch: 15 July)

Event Time Altitude Azimuth Distance (km) Brightness Sun altitude
Rises 06:35:45 0° 237° (WSW) 4,711 11.0 23.0°
Reaches altitude 10° 06:38:52 10° 234° (SW) 3,715 10.6 23.5°
Maximum altitude 06:48:00 62° 157° (SSE) 1,688 9.8 25.0°
Drops below altitude 10° 06:57:07 10° 79° (E) 3,702 12.8 26.5°
Sets 07:00:12 0° 77° (ENE) 4,694 12.8 27.0°
